QPF
0.14 0.14 0.16 0.13 0.08 0.14 0.22 0.22 0.16 0.18 0.21 0.16 0.10 0.06 0.04 0.05 0.05 0.05 0.07 0.10 0.07 0.06 0.06 0.05 0.03 0.03 0.04 0.05 0.04 0.03 0.03 0.04 0.04 0.03 0.02 0.02 0.03 0.04 0.03 0.03 0.01 0.01 0.01
0.20 0.18 0.18 0.17 0.15 0.18 0.22 0.22 0.22 0.24 0.21 0.21 0.11 0.08 0.06 0.05 0.06 0.08 0.06 0.08 0.10 0.05 0.04 0.04 0.04 0.04 0.03 0.04 0.04 0.03 0.03 0.03 0.03 0.01 0.01 0.01 0.01 0.01 0.02 0.02 0.02 0.00 0.00
0.11 0.10 0.10 0.12 0.17 0.18 0.19 0.17 0.20 0.23 0.22 0.22 0.18 0.16 0.12 0.07 0.06 0.08 0.08 0.05 0.06 0.07 0.04 0.04 0.03 0.03 0.04 0.04 0.04 0.03 0.02 0.02 0.01 0.01 0.01 0.00 0.00 0.00 0.00 0.01 0.01 0.00 0.00
0.05 0.05 0.04 0.06 0.09 0.09 0.11 0.12 0.14 0.20 0.22 0.23 0.23 0.19 0.19 0.18 0.11 0.09 0.08 0.06 0.03 0.02 0.03 0.05 0.04 0.04 0.04 0.03 0.03 0.03 0.02 0.01 0.01 0.00 0.00 0.00 0.00 0.00 0.00 0.00 0.00 0.00 0.00
0.01 0.02 0.01 0.02 0.02 0.02 0.03 0.05 0.12 0.13 0.13 0.16 0.21 0.20 0.16 0.13 0.11 0.08 0.07 0.03 0.02 0.02 0.03 0.05 0.04 0.03 0.04 0.04 0.04 0.04 0.02 0.01 0.00 0.00 0.00 0.00 0.00 0.00 0.00 0.00 0.00 0.00 0.00
0.00 0.00 0.00 0.00 0.00 0.00 0.01 0.01 0.02 0.05 0.06 0.08 0.10 0.12 0.12 0.09 0.09 0.08 0.04 0.02 0.02 0.01 0.02 0.04 0.06 0.05 0.04 0.04 0.04 0.03 0.03 0.02 0.01 0.00 0.00 0.00 0.00 0.00 0.00 0.00 0.00 0.00 0.00
0.00 0.00 0.00 0.00 0.00 0.00 0.00 0.00 0.01 0.01 0.02 0.04 0.04 0.04 0.04 0.04 0.03 0.05 0.04 0.02 0.02 0.02 0.02 0.02 0.03 0.04 0.07 0.08 0.05 0.04 0.04 0.04 0.02 0.01 0.00 0.00 0.00 0.00 0.00 0.00 0.00 0.00 0.00
0.00 0.00 0.00 0.00 0.00 0.00 0.00 0.00 0.01 0.01 0.01 0.02 0.04 0.03 0.02 0.02 0.02 0.01 0.01 0.01 0.01 0.01 0.02 0.02 0.02 0.02 0.03 0.07 0.12 0.07 0.05 0.05 0.05 0.03 0.02 0.01 0.01 0.01 0.01 0.01 0.01 0.01 0.00
0.00 0.00 0.00 0.00 0.00 0.00 0.00 0.00 0.01 0.01 0.01 0.01 0.03 0.04 0.03 0.01 0.02 0.01 0.01 0.01 0.02 0.03 0.01 0.01 0.02 0.01 0.02 0.03 0.07 0.11 0.04 0.04 0.05 0.05 0.04 0.02 0.01 0.01 0.01 0.01 0.01 0.02 0.01
0.00 0.00 0.00 0.00 0.00 0.00 0.00 0.00 0.00 0.01 0.01 0.01 0.02 0.04 0.04 0.06 0.04 0.01 0.00 0.00 0.02 0.03 0.02 0.02 0.04 0.04 0.03 0.05 0.10 0.15 0.09 0.04 0.04 0.06 0.05 0.05 0.03 0.02 0.02 0.02 0.02 0.02 0.02
0.00 0.00 0.00 0.00 0.00 0.00 0.00 0.00 0.01 0.01 0.02 0.02 0.02 0.03 0.04 0.09 0.09 0.07 0.02 0.01 0.02 0.03 0.04 0.05 0.05 0.05 0.06 0.09 0.17 0.24 0.20 0.11 0.08 0.05 0.05 0.05 0.04 0.04 0.03 0.03 0.05 0.07 0.06
0.00 0.00 0.00 0.00 0.00 0.00 0.00 0.01 0.01 0.02 0.03 0.04 0.05 0.05 0.06 0.07 0.09 0.13 0.09 0.06 0.06 0.04 0.07 0.11 0.12 0.10 0.08 0.11 0.16 0.24 0.22 0.16 0.11 0.07 0.05 0.04 0.03 0.03 0.04 0.05 0.07 0.11 0.15
0.01 0.00 0.01 0.02 0.01 0.01 0.01 0.01 0.01 0.01 0.02 0.05 0.06 0.07 0.08 0.08 0.11 0.15 0.14 0.12 0.15 0.14 0.15 0.14 0.13 0.12 0.12 0.14 0.13 0.13 0.11 0.10 0.09 0.06 0.04 0.02 0.02 0.03 0.04 0.06 0.08 0.10 0.14
0.03 0.03 0.03 0.04 0.03 0.02 0.01 0.01 0.01 0.02 0.03 0.05 0.05 0.09 0.10 0.09 0.13 0.16 0.17 0.20 0.19 0.19 0.21 0.18 0.14 0.13 0.15 0.17 0.16 0.11 0.06 0.04 0.04 0.03 0.02 0.02 0.02 0.03 0.04 0.05 0.07 0.10 0.12
0.07 0.07 0.08 0.08 0.06 0.04 0.04 0.03 0.02 0.03 0.04 0.06 0.07 0.09 0.12 0.13 0.16 0.19 0.22 0.25 0.25 0.22 0.23 0.22 0.15 0.13 0.14 0.14 0.14 0.12 0.07 0.03 0.02 0.02 0.02 0.02 0.02 0.02 0.03 0.05 0.07 0.09 0.11
0.10 0.09 0.09 0.08 0.07 0.05 0.05 0.04 0.03 0.03 0.04 0.06 0.08 0.11 0.13 0.15 0.19 0.22 0.24 0.28 0.31 0.30 0.25 0.19 0.15 0.12 0.12 0.10 0.08 0.08 0.04 0.03 0.02 0.03 0.03 0.03 0.03 0.03 0.03 0.04 0.06 0.08 0.11
0.09 0.09 0.09 0.08 0.07 0.06 0.05 0.05 0.04 0.02 0.02 0.03 0.05 0.07 0.10 0.14 0.17 0.20 0.24 0.27 0.30 0.32 0.23 0.15 0.12 0.12 0.10 0.07 0.06 0.06 0.05 0.03 0.03 0.04 0.05 0.04 0.04 0.05 0.05 0.05 0.06 0.08 0.09
0.07 0.08 0.09 0.09 0.06 0.05 0.06 0.05 0.03 0.02 0.02 0.02 0.03 0.05 0.08 0.11 0.15 0.17 0.20 0.20 0.22 0.25 0.20 0.12 0.09 0.09 0.09 0.08 0.08 0.08 0.07 0.06 0.05 0.07 0.05 0.04 0.04 0.04 0.06 0.07 0.08 0.09 0.11
0.06 0.07 0.08 0.08 0.07 0.07 0.06 0.05 0.04 0.03 0.03 0.02 0.02 0.04 0.07 0.09 0.11 0.13 0.14 0.15 0.15 0.19 0.17 0.12 0.10 0.10 0.11 0.11 0.11 0.10 0.09 0.08 0.06 0.06 0.04 0.02 0.02 0.03 0.04 0.06 0.08 0.09 0.10
0.05 0.06 0.07 0.08 0.08 0.07 0.07 0.06 0.05 0.04 0.03 0.02 0.02 0.03 0.04 0.06 0.09 0.09 0.11 0.12 0.13 0.12 0.11 0.12 0.13 0.14 0.14 0.16 0.15 0.15 0.15 0.12 0.07 0.04 0.03 0.02 0.01 0.01 0.01 0.02 0.04 0.05 0.05
0.03 0.05 0.07 0.08 0.09 0.09 0.07 0.08 0.07 0.05 0.04 0.03 0.02 0.02 0.02 0.04 0.06 0.08 0.10 0.11 0.12 0.11 0.10 0.12 0.14 0.16 0.18 0.19 0.18 0.16 0.14 0.12 0.08 0.06 0.04 0.03 0.02 0.01 0.00 0.01 0.01 0.03 0.04
0.04 0.06 0.07 0.08 0.10 0.10 0.06 0.04 0.05 0.05 0.06 0.04 0.02 0.01 0.02 0.03 0.04 0.06 0.10 0.11 0.13 0.13 0.13 0.15 0.17 0.18 0.21 0.20 0.17 0.15 0.14 0.13 0.12 0.13 0.10 0.07 0.04 0.01 0.00 0.00 0.00 0.01 0.01
0.04 0.06 0.07 0.10 0.12 0.15 0.09 0.04 0.03 0.04 0.06 0.05 0.03 0.02 0.02 0.03 0.05 0.04 0.04 0.06 0.09 0.13 0.15 0.18 0.20 0.18 0.18 0.17 0.14 0.13 0.13 0.13 0.12 0.13 0.11 0.06 0.03 0.00 0.00 0.00 0.00 0.00 0.00
0.04 0.05 0.06 0.09 0.13 0.16 0.12 0.06 0.04 0.04 0.08 0.06 0.03 0.02 0.02 0.03 0.06 0.07 0.04 0.04 0.07 0.10 0.13 0.15 0.19 0.18 0.15 0.14 0.12 0.10 0.08 0.07 0.07 0.08 0.07 0.04 0.02 0.01 0.00 0.00 0.00 0.00 0.00
0.05 0.04 0.05 0.09 0.14 0.20 0.18 0.10 0.07 0.07 0.10 0.07 0.04 0.02 0.02 0.02 0.04 0.06 0.07 0.04 0.04 0.07 0.09 0.09 0.09 0.09 0.08 0.06 0.06 0.06 0.04 0.03 0.03 0.04 0.03 0.02 0.01 0.00 0.00 0.00 0.00 0.00 0.00
0.06 0.04 0.05 0.09 0.16 0.27 0.30 0.19 0.12 0.11 0.12 0.09 0.05 0.03 0.02 0.02 0.01 0.02 0.04 0.05 0.04 0.03 0.03 0.03 0.02 0.02 0.02 0.02 0.02 0.02 0.02 0.01 0.01 0.01 0.01 0.01 0.01 0.00 0.00 0.00 0.00 0.00 0.00
MSLP
1010.77 1010.91 1010.96 1010.94 1010.89 1010.84 1010.84 1010.90 1011.00 1011.13 1011.25 1011.33 1011.34 1011.29 1011.19 1011.07 1010.97 1010.93 1010.97 1011.11 1011.33 1011.63 1011.95 1012.29 1012.62 1012.91 1013.18 1013.41 1013.61 1013.82 1014.03 1014.26 1014.53 1014.83 1015.17 1015.55 1015.95 1016.36 1016.77 1017.16 1017.52 1017.84 1018.13
1010.51 1010.70 1010.78 1010.79 1010.74 1010.68 1010.64 1010.63 1010.67 1010.73 1010.80 1010.85 1010.86 1010.81 1010.73 1010.62 1010.52 1010.46 1010.48 1010.59 1010.78 1011.05 1011.37 1011.72 1012.08 1012.41 1012.70 1012.95 1013.17 1013.36 1013.54 1013.73 1013.94 1014.20 1014.50 1014.85 1015.24 1015.65 1016.07 1016.47 1016.85 1017.19 1017.51
1010.35 1010.57 1010.69 1010.73 1010.69 1010.62 1010.55 1010.50 1010.48 1010.49 1010.51 1010.53 1010.51 1010.46 1010.36 1010.24 1010.11 1010.01 1009.96 1010.00 1010.13 1010.34 1010.64 1010.99 1011.36 1011.73 1012.06 1012.35 1012.60 1012.79 1012.97 1013.13 1013.31 1013.53 1013.79 1014.11 1014.47 1014.87 1015.29 1015.70 1016.09 1016.46 1016.80
1010.23 1010.48 1010.63 1010.70 1010.69 1010.63 1010.55 1010.47 1010.41 1010.38 1010.36 1010.34 1010.30 1010.21 1010.08 1009.92 1009.73 1009.54 1009.41 1009.34 1009.37 1009.51 1009.74 1010.06 1010.43 1010.82 1011.20 1011.54 1011.82 1012.05 1012.24 1012.41 1012.57 1012.77 1013.01 1013.31 1013.66 1014.05 1014.46 1014.87 1015.28 1015.67 1016.04
1010.11 1010.37 1010.56 1010.67 1010.70 1010.67 1010.60 1010.52 1010.44 1010.38 1010.32 1010.26 1010.18 1010.06 1009.88 1009.65 1009.38 1009.10 1008.84 1008.65 1008.55 1008.57 1008.72 1008.97 1009.31 1009.70 1010.11 1010.49 1010.82 1011.10 1011.33 1011.52 1011.71 1011.92 1012.16 1012.45 1012.80 1013.18 1013.59 1014.02 1014.43 1014.84 1015.23
1009.95 1010.22 1010.45 1010.60 1010.68 1010.70 1010.66 1010.60 1010.52 1010.43 1010.35 1010.26 1010.14 1009.97 1009.74 1009.44 1009.08 1008.70 1008.32 1007.98 1007.74 1007.63 1007.65 1007.81 1008.08 1008.44 1008.84 1009.24 1009.62 1009.95 1010.23 1010.48 1010.72 1010.96 1011.24 1011.55 1011.91 1012.31 1012.73 1013.16 1013.59 1014.01 1014.42
1009.74 1010.02 1010.27 1010.47 1010.62 1010.69 1010.70 1010.67 1010.60 1010.52 1010.42 1010.30 1010.15 1009.94 1009.67 1009.31 1008.88 1008.40 1007.91 1007.44 1007.06 1006.79 1006.67 1006.70 1006.87 1007.16 1007.52 1007.91 1008.30 1008.68 1009.02 1009.33 1009.63 1009.94 1010.27 1010.63 1011.03 1011.45 1011.89 1012.33 1012.77 1013.19 1013.61
1009.50 1009.77 1010.04 1010.29 1010.50 1010.63 1010.70 1010.71 1010.67 1010.59 1010.49 1010.36 1010.19 1009.97 1009.67 1009.28 1008.81 1008.26 1007.67 1007.10 1006.58 1006.17 1005.90 1005.78 1005.82 1006.00 1006.29 1006.63 1007.02 1007.41 1007.79 1008.17 1008.54 1008.92 1009.32 1009.74 1010.18 1010.64 1011.09 1011.55 1011.98 1012.41 1012.82
1009.25 1009.50 1009.79 1010.08 1010.33 1010.53 1010.65 1010.70 1010.69 1010.63 1010.53 1010.40 1010.24 1010.02 1009.72 1009.34 1008.85 1008.28 1007.65 1007.00 1006.38 1005.84 1005.43 1005.17 1005.07 1005.11 1005.29 1005.57 1005.91 1006.29 1006.69 1007.11 1007.54 1007.99 1008.46 1008.93 1009.42 1009.90 1010.37 1010.83 1011.25 1011.66 1012.05
1009.03 1009.25 1009.54 1009.84 1010.13 1010.36 1010.53 1010.61 1010.62 1010.58 1010.50 1010.39 1010.24 1010.05 1009.79 1009.43 1008.98 1008.43 1007.79 1007.12 1006.44 1005.82 1005.29 1004.90 1004.66 1004.58 1004.64 1004.82 1005.10 1005.45 1005.85 1006.29 1006.76 1007.25 1007.76 1008.28 1008.79 1009.29 1009.76 1010.19 1010.58 1010.95 1011.29
1008.86 1009.04 1009.31 1009.60 1009.90 1010.14 1010.32 1010.41 1010.44 1010.41 1010.35 1010.26 1010.14 1010.00 1009.79 1009.50 1009.11 1008.61 1008.01 1007.35 1006.66 1006.00 1005.41 1004.93 1004.59 1004.40 1004.36 1004.45 1004.66 1004.97 1005.34 1005.78 1006.26 1006.78 1007.31 1007.84 1008.35 1008.84 1009.28 1009.66 1010.00 1010.29 1010.57
1008.76 1008.88 1009.10 1009.37 1009.63 1009.85 1010.01 1010.10 1010.12 1010.10 1010.04 1009.98 1009.90 1009.80 1009.66 1009.44 1009.13 1008.71 1008.18 1007.57 1006.92 1006.27 1005.66 1005.15 1004.76 1004.51 1004.41 1004.44 1004.60 1004.87 1005.22 1005.64 1006.11 1006.62 1007.14 1007.65 1008.13 1008.57 1008.95 1009.27 1009.52 1009.73 1009.91
1008.72 1008.78 1008.93 1009.12 1009.33 1009.50 1009.61 1009.67 1009.66 1009.63 1009.58 1009.53 1009.48 1009.42 1009.34 1009.19 1008.95 1008.61 1008.17 1007.64 1007.05 1006.46 1005.90 1005.41 1005.04 1004.80 1004.69 1004.71 1004.86 1005.11 1005.44 1005.85 1006.30 1006.78 1007.26 1007.73 1008.15 1008.52 1008.82 1009.05 1009.20 1009.31 1009.39
1008.73 1008.71 1008.77 1008.88 1008.99 1009.08 1009.13 1009.13 1009.09 1009.03 1008.97 1008.92 1008.89 1008.87 1008.82 1008.72 1008.54 1008.27 1007.90 1007.46 1006.96 1006.46 1005.99 1005.60 1005.30 1005.13 1005.09 1005.16 1005.34 1005.61 1005.95 1006.34 1006.77 1007.21 1007.65 1008.05 1008.41 1008.69 1008.90 1009.02 1009.07 1009.07 1009.04
1008.76 1008.66 1008.63 1008.63 1008.64 1008.64 1008.60 1008.53 1008.44 1008.35 1008.27 1008.22 1008.20 1008.18 1008.14 1008.07 1007.92 1007.69 1007.38 1007.01 1006.61 1006.22 1005.87 1005.61 1005.45 1005.41 1005.49 1005.66 1005.93 1006.26 1006.63 1007.04 1007.45 1007.86 1008.24 1008.58 1008.85 1009.06 1009.17 1009.20 1009.16 1009.06 1008.93
1008.78 1008.61 1008.48 1008.39 1008.29 1008.18 1008.06 1007.92 1007.78 1007.66 1007.57 1007.51 1007.48 1007.45 1007.41 1007.32 1007.18 1006.96 1006.68 1006.37 1006.05 1005.77 1005.56 1005.45 1005.46 1005.59 1005.82 1006.14 1006.53 1006.94 1007.38 1007.81 1008.22 1008.60 1008.94 1009.22 1009.44 1009.58 1009.62 1009.58 1009.46 1009.29 1009.09
1008.74 1008.52 1008.32 1008.14 1007.95 1007.75 1007.55 1007.36 1007.19 1007.04 1006.95 1006.88 1006.84 1006.80 1006.74 1006.63 1006.45 1006.22 1005.94 1005.66 1005.40 1005.22 1005.14 1005.18 1005.36 1005.67 1006.07 1006.55 1007.06 1007.57 1008.07 1008.54 1008.96 1009.33 1009.65 1009.90 1010.08 1010.18 1010.19 1010.11 1009.96 1009.74 1009.50
1008.63 1008.37 1008.13 1007.88 1007.62 1007.36 1007.10 1006.87 1006.68 1006.54 1006.45 1006.40 1006.36 1006.31 1006.23 1006.09 1005.88 1005.62 1005.33 1005.05 1004.84 1004.72 1004.74 1004.92 1005.24 1005.70 1006.26 1006.87 1007.49 1008.10 1008.66 1009.16 1009.59 1009.96 1010.27 1010.50 1010.68 1010.77 1010.79 1010.72 1010.57 1010.35 1010.10
1008.39 1008.14 1007.87 1007.58 1007.28 1006.98 1006.70 1006.46 1006.27 1006.15 1006.09 1006.07 1006.06 1006.03 1005.95 1005.79 1005.56 1005.27 1004.97 1004.69 1004.49 1004.42 1004.51 1004.78 1005.20 1005.77 1006.43 1007.13 1007.82 1008.48 1009.08 1009.60 1010.04 1010.41 1010.71 1010.96 1011.15 1011.28 1011.33 1011.31 1011.21 1011.03 1010.81
1008.03 1007.80 1007.53 1007.23 1006.90 1006.58 1006.29 1006.06 1005.91 1005.83 1005.83 1005.87 1005.91 1005.92 1005.87 1005.73 1005.50 1005.21 1004.90 1004.63 1004.45 1004.40 1004.53 1004.83 1005.31 1005.93 1006.63 1007.36 1008.08 1008.74 1009.33 1009.84 1010.27 1010.64 1010.96 1011.23 1011.46 1011.64 1011.77 1011.82 1011.79 1011.69 1011.52
1007.54 1007.34 1007.08 1006.78 1006.44 1006.12 1005.84 1005.63 1005.52 1005.51 1005.58 1005.70 1005.83 1005.91 1005.93 1005.84 1005.66 1005.40 1005.12 1004.86 1004.70 1004.67 1004.80 1005.12 1005.60 1006.20 1006.88 1007.59 1008.27 1008.90 1009.45 1009.92 1010.32 1010.67 1011.00 1011.30 1011.58 1011.83 1012.04 1012.18 1012.25 1012.23 1012.14
1006.93 1006.76 1006.51 1006.20 1005.87 1005.55 1005.28 1005.11 1005.04 1005.10 1005.26 1005.48 1005.70 1005.90 1006.01 1006.02 1005.92 1005.74 1005.51 1005.31 1005.17 1005.16 1005.29 1005.59 1006.04 1006.59 1007.21 1007.84 1008.44 1008.98 1009.45 1009.86 1010.22 1010.55 1010.88 1011.20 1011.54 1011.86 1012.15 1012.39 1012.55 1012.62 1012.61
1006.23 1006.07 1005.82 1005.51 1005.17 1004.86 1004.60 1004.46 1004.44 1004.57 1004.81 1005.12 1005.46 1005.77 1006.01 1006.14 1006.16 1006.09 1005.96 1005.83 1005.75 1005.76 1005.90 1006.17 1006.56 1007.04 1007.57 1008.10 1008.59 1009.03 1009.41 1009.74 1010.05 1010.35 1010.67 1011.01 1011.39 1011.77 1012.14 1012.45 1012.70 1012.85 1012.91
1005.46 1005.29 1005.04 1004.72 1004.38 1004.06 1003.82 1003.70 1003.73 1003.90 1004.22 1004.62 1005.06 1005.49 1005.86 1006.12 1006.28 1006.33 1006.33 1006.30 1006.30 1006.36 1006.51 1006.77 1007.11 1007.51 1007.94 1008.36 1008.74 1009.08 1009.36 1009.62 1009.87 1010.14 1010.45 1010.80 1011.21 1011.63 1012.05 1012.42 1012.73 1012.95 1013.06
1004.66 1004.48 1004.21 1003.89 1003.54 1003.23 1003.00 1002.90 1002.96 1003.18 1003.54 1004.01 1004.53 1005.06 1005.54 1005.93 1006.22 1006.42 1006.54 1006.63 1006.72 1006.85 1007.03 1007.28 1007.59 1007.93 1008.28 1008.60 1008.89 1009.14 1009.35 1009.55 1009.76 1010.00 1010.29 1010.65 1011.06 1011.51 1011.95 1012.36 1012.70 1012.95 1013.11
1003.85 1003.65 1003.39 1003.07 1002.74 1002.45 1002.24 1002.16 1002.24 1002.49 1002.88 1003.39 1003.96 1004.55 1005.11 1005.61 1006.02 1006.34 1006.59 1006.79 1006.98 1007.19 1007.42 1007.68 1007.97 1008.27 1008.56 1008.83 1009.05 1009.24 1009.40 1009.56 1009.74 1009.97 1010.25 1010.61 1011.02 1011.46 1011.90 1012.32 1012.67 1012.94 1013.12
Thickness
5775 5773 5772 5771 5770 5770 5769 5766 5765 5764 5762 5760 5760 5760 5761 5761 5764 5764 5765 5764 5761 5759 5757 5756 5755 5753 5752 5752 5752 5752 5751 5750 5749 5747 5746 5744 5742 5741 5739 5737 5735 5733 5732
5770 5768 5766 5765 5765 5764 5763 5762 5761 5759 5758 5757 5756 5757 5757 5758 5760 5760 5759 5759 5760 5758 5757 5756 5755 5753 5751 5751 5752 5752 5752 5751 5750 5749 5748 5746 5744 5743 5741 5739 5738 5736 5734
5766 5764 5761 5760 5761 5761 5760 5758 5757 5756 5754 5753 5752 5753 5753 5753 5754 5755 5755 5756 5756 5756 5756 5756 5755 5753 5752 5751 5751 5751 5752 5752 5751 5750 5749 5748 5746 5745 5743 5742 5740 5738 5736
5762 5759 5756 5756 5757 5756 5756 5754 5754 5752 5750 5748 5747 5747 5748 5749 5751 5752 5752 5753 5754 5755 5755 5755 5754 5752 5751 5750 5750 5751 5751 5751 5751 5751 5750 5749 5748 5747 5745 5744 5742 5741 5739
5757 5754 5752 5752 5752 5752 5751 5751 5751 5748 5745 5743 5743 5745 5746 5747 5748 5750 5750 5751 5753 5754 5754 5754 5753 5752 5751 5750 5750 5750 5750 5751 5751 5751 5750 5750 5749 5748 5747 5745 5744 5743 5741
5752 5749 5747 5748 5747 5746 5745 5744 5742 5742 5741 5740 5740 5743 5744 5745 5746 5746 5747 5750 5752 5753 5753 5753 5752 5751 5750 5750 5750 5749 5748 5749 5750 5750 5750 5750 5749 5749 5748 5746 5745 5744 5743
5747 5744 5742 5742 5742 5741 5740 5738 5737 5735 5734 5736 5733 5734 5739 5744 5745 5746 5747 5748 5751 5753 5752 5753 5753 5752 5750 5748 5749 5748 5747 5748 5749 5749 5749 5749 5749 5748 5747 5747 5746 5744 5743
5743 5742 5739 5736 5737 5735 5734 5734 5732 5728 5728 5729 5724 5721 5722 5729 5736 5745 5746 5747 5748 5750 5751 5751 5752 5751 5751 5749 5748 5747 5746 5746 5748 5748 5747 5747 5747 5747 5746 5746 5745 5744 5743
5739 5737 5734 5732 5731 5730 5730 5728 5727 5724 5721 5722 5720 5714 5710 5712 5720 5730 5735 5740 5743 5746 5749 5750 5750 5750 5750 5750 5751 5749 5747 5747 5747 5746 5745 5745 5744 5745 5744 5744 5743 5743 5742
5735 5734 5731 5729 5727 5726 5725 5724 5725 5720 5716 5714 5715 5714 5711 5709 5704 5710 5721 5728 5733 5737 5742 5746 5747 5748 5749 5749 5749 5747 5746 5745 5744 5743 5742 5741 5741 5741 5742 5741 5741 5741 5741
5732 5731 5729 5726 5723 5721 5721 5720 5718 5716 5714 5711 5709 5708 5706 5704 5702 5698 5702 5711 5719 5726 5733 5737 5741 5743 5745 5746 5744 5742 5741 5739 5739 5739 5737 5737 5737 5737 5738 5738 5738 5738 5738
5727 5728 5727 5723 5719 5717 5716 5715 5714 5712 5711 5709 5706 5704 5701 5698 5696 5694 5694 5698 5703 5712 5720 5727 5732 5735 5737 5737 5736 5735 5733 5732 5732 5732 5731 5731 5732 5733 5734 5735 5736 5736 5736
5718 5720 5721 5717 5714 5713 5712 5711 5709 5708 5708 5706 5704 5702 5701 5698 5696 5692 5690 5691 5694 5701 5707 5714 5721 5726 5728 5729 5728 5726 5725 5724 5724 5724 5724 5724 5725 5727 5728 5730 5731 5732 5732
5708 5711 5711 5709 5708 5707 5706 5705 5705 5705 5705 5704 5703 5701 5699 5698 5696 5692 5688 5686 5685 5691 5696 5701 5708 5714 5717 5718 5718 5717 5715 5715 5715 5715 5716 5717 5717 5719 5721 5723 5724 5725 5726
5698 5701 5701 5701 5701 5700 5699 5698 5698 5699 5700 5700 5700 5699 5698 5697 5695 5693 5690 5686 5682 5681 5685 5691 5695 5701 5705 5707 5707 5707 5705 5704 5704 5705 5706 5706 5707 5709 5711 5713 5715 5717 5719
5683 5686 5689 5691 5693 5693 5693 5692 5692 5694 5695 5695 5696 5695 5694 5694 5694 5692 5690 5688 5686 5682 5680 5684 5686 5690 5694 5695 5695 5696 5694 5693 5692 5693 5694 5694 5695 5697 5699 5701 5704 5707 5709
5667 5672 5676 5679 5682 5685 5687 5687 5687 5688 5689 5690 5690 5690 5689 5689 5689 5689 5689 5688 5686 5683 5677 5677 5678 5681 5682 5683 5683 5683 5682 5681 5679 5680 5680 5681 5682 5684 5686 5688 5691 5693 5696
5651 5656 5661 5666 5671 5675 5678 5680 5681 5683 5682 5682 5683 5683 5683 5684 5684 5684 5684 5684 5684 5683 5677 5672 5670 5671 5671 5672 5672 5672 5670 5668 5666 5666 5666 5667 5669 5671 5672 5674 5676 5679 5681
5633 5639 5645 5651 5657 5663 5667 5671 5674 5676 5676 5676 5676 5675 5675 5676 5677 5677 5678 5678 5678 5678 5675 5669 5664 5663 5662 5662 5661 5659 5658 5656 5654 5653 5653 5654 5655 5657 5658 5660 5662 5664 5667
5617 5622 5629 5635 5642 5650 5656 5661 5665 5668 5669 5668 5668 5668 5668 5669 5669 5670 5670 5670 5671 5669 5666 5661 5657 5654 5653 5652 5651 5648 5646 5645 5644 5643 5642 5642 5642 5644 5645 5646 5649 5651 5653
5601 5606 5612 5619 5627 5635 5645 5651 5655 5659 5661 5660 5660 5661 5660 5661 5661 5662 5663 5663 5663 5661 5658 5654 5649 5646 5645 5643 5641 5640 5638 5636 5634 5633 5632 5632 5633 5633 5633 5634 5636 5638 5640
5583 5587 5593 5600 5608 5619 5629 5636 5643 5649 5652 5652 5651 5652 5652 5652 5653 5653 5654 5655 5655 5653 5650 5647 5643 5640 5638 5636 5635 5634 5632 5629 5626 5625 5627 5624 5625 5624 5624 5623 5625 5627 5630
5564 5567 5572 5579 5588 5598 5609 5620 5629 5637 5642 5643 5644 5645 5646 5645 5644 5644 5644 5644 5643 5643 5643 5641 5636 5634 5632 5631 5630 5628 5627 5626 5625 5623 5622 5617 5617 5616 5616 5615 5617 5619 5622
5551 5551 5554 5560 5567 5578 5590 5601 5612 5623 5631 5635 5636 5637 5638 5637 5637 5636 5635 5634 5633 5632 5633 5632 5630 5628 5627 5626 5625 5624 5623 5622 5621 5619 5619 5613 5612 5611 5611 5610 5612 5615 5617
5543 5543 5545 5548 5552 5560 5570 5582 5592 5607 5618 5624 5627 5629 5630 5629 5628 5629 5628 5625 5624 5622 5622 5622 5621 5620 5620 5620 5620 5619 5618 5616 5612 5613 5615 5613 5610 5609 5608 5607 5608 5610 5612
5539 5539 5540 5542 5544 5547 5554 5565 5576 5591 5604 5612 5616 5619 5621 5621 5620 5621 5620 5619 5617 5615 5615 5614 5613 5613 5614 5614 5615 5616 5616 5614 5612 5610 5613 5614 5612 5611 5607 5607 5608 5607 5607